#timestamp,LO_Frequency,Hit,StdDev 
1455516015.0,286047001.1,N
1455516015.9,286047001.1,N
1455516035.8,286046997.8,N
1455516055.6,286046997.3,N
1455516075.4,286046997.2,N
1455516095.3,286046997.1,N
1455516115.1,286046995.0,Y
1455516135.9,286046994.9,P
1455516155.7,286046995.2,N
1455516175.5,286046998.0,N
1455516195.4,286046995.0,N
1455516215.2,286046997.3,N
1455516235.0,286046999.6,N
1455516235.9,286046999.6,N
1455516255.8,286046998.9,N
1455516275.6,286046998.4,N
1455516295.5,286046999.9,N
1455516315.3,286047002.4,N
1455516335.1,286047000.1,N
1455516355.9,286047002.8,N
1455516375.7,286047000.2,N
1455516395.5,286047001.8,N
1455516415.4,286047000.0,N
1455516435.2,286047001.1,N
1455516455.1,286046998.6,N
1455516456.0,286046998.6,N
1455516475.8,286046999.6,N
1455516495.6,286046998.1,N
1455516515.5,286046997.2,N
1455516535.3,286046996.5,N
1455516555.1,286047001.2,N
1455516575.9,286046998.9,N
1455516595.7,286046996.8,N
1455516615.6,286047000.3,N
1455516635.4,286046998.5,N
1455516655.2,286046998.2,N
1455516675.1,286047001.0,N
1455516676.0,286047001.0,N
1455516695.8,286047002.3,N
1455516715.7,286047002.4,N
1455516735.5,286047000.7,N
1455516755.3,286046997.0,N
1455516775.2,286046997.8,N
1455516795.9,286046995.1,N
1455516815.7,286046995.3,N
1455516835.6,286046994.9,N
1455516855.4,286046995.4,N
1455516875.3,286046997.6,N
1455516895.1,286046995.7,N
1455516896.0,286046995.7,N
1455516915.8,286046997.6,N
1455516935.7,286046997.9,N
1455516955.5,286046997.6,N
1455516975.3,286046997.9,N
1455516995.2,286046994.9,N
1455517015.0,286046997.5,N
1455517015.9,286046997.5,N
1455517035.8,286046996.7,N
1455517055.6,286046997.0,N
1455517075.4,286046998.6,N
1455517095.3,286047001.2,N
1455517115.1,286046996.5,N
1455517135.8,286046999.4,N
1455517155.7,286047000.0,N
1455517175.5,286047000.5,N
1455517195.4,286046998.9,N
1455517215.2,286046998.1,N
1455517235.0,286046999.5,N
1455517235.9,286046999.5,N
1455517255.8,286046996.5,N
1455517275.6,286046996.5,N
1455517295.4,286046997.2,N
1455517315.3,286046997.1,N
1455517335.1,286046997.1,N
1455517355.9,286046997.6,N
1455517375.7,286046999.4,N
1455517395.5,286046996.7,N
1455517415.4,286046999.4,N
1455517435.2,286046998.9,N
1455517455.0,286047000.6,N
1455517455.9,286047000.6,N
1455517475.8,286047000.4,N
1455517495.6,286047000.9,N
1455517515.5,286047001.0,N
1455517535.3,286047000.6,N
1455517555.1,286047000.9,N
1455517575.9,286047000.0,N
1455517595.7,286047000.2,N
1455517615.5,286046998.6,N
1455517635.4,286046998.6,N
1455517655.2,286047002.7,N
1455517675.1,286047000.0,N
1455517676.0,286047000.0,N
1455517695.8,286047000.8,N
1455517715.6,286047001.2,N
1455517735.5,286047002.8,N
1455517755.3,286047001.9,N
1455517775.1,286047003.0,N
1455517795.9,286047003.2,N
1455517815.7,286047004.1,N
1455517835.6,286047001.8,N
1455517855.4,286047004.4,N
1455517875.2,286047001.8,N
1455517895.1,286047001.5,N
1455517896.0,286047001.5,N
1455517915.8,286047003.7,N
1455517935.7,286047004.1,N
1455517955.5,286047004.0,N
1455517975.3,286047001.3,N
1455517995.2,286047002.1,N
1455518015.0,286046999.9,N
1455518015.9,286046999.9,N
1455518035.8,286047001.5,N
1455518055.6,286047003.8,N
1455518075.4,286047003.7,N
1455518095.3,286047001.8,N
1455518115.1,286047001.5,N
1455518135.8,286047001.7,N
1455518155.7,286047001.5,N
1455518175.5,286047001.9,N
1455518195.4,286047003.6,N
1455518215.2,286047006.0,Y
1455518235.0,286047002.1,P
1455518235.9,286047002.1,P
1455518255.8,286047004.1,P
1455518275.6,286047001.8,N
1455518295.4,286047001.3,N
1455518315.3,286046999.7,N
1455518335.1,286047000.8,N
1455518355.9,286047001.2,N
1455518375.7,286046998.7,N
1455518395.5,286046997.1,N
1455518415.4,286046995.1,N
1455518435.2,286046994.9,N
1455518455.0,286046995.2,N
1455518455.9,286046995.2,N
1455518475.8,286046997.9,N
1455518495.6,286046997.4,N
1455518515.5,286046997.3,N
1455518535.3,286046997.3,N
1455518555.1,286046997.5,N
1455518575.9,286046999.6,N
1455518595.7,286046999.1,N
1455518615.5,286046999.4,N
1455518635.4,286047000.5,N
1455518655.2,286047000.4,N
1455518675.1,286047000.7,N
1455518676.0,286047000.7,N
1455518695.8,286046998.9,N
1455518715.6,286047001.1,N
1455518735.5,286047000.7,N
1455518755.3,286047000.6,N
1455518775.1,286046998.9,N
1455518795.9,286046999.3,N
1455518815.7,286046996.7,N
1455518835.6,286046997.3,N
1455518855.4,286046997.3,N
1455518875.2,286046999.4,N
1455518895.1,286046999.1,N
1455518896.0,286046999.1,N
1455518915.8,286046995.3,N
1455518935.7,286046998.0,N
1455518955.5,286046994.9,N
1455518975.3,286046997.4,N
1455518995.2,286046995.3,N
1455519015.9,286046994.9,N
1455519035.7,286046997.5,N
1455519055.6,286046996.6,N
1455519075.4,286046997.5,N
1455519095.3,286046995.8,N
1455519115.1,286046997.8,N
1455519116.0,286046997.8,N
1455519135.8,286046995.8,N
1455519155.7,286046993.6,Y
1455519175.5,286046996.2,P
1455519195.3,286046996.2,P
1455519215.2,286046995.6,P
1455519235.0,286046995.6,Y
1455519235.9,286046995.6,P
1455519255.8,286047001.0,N
1455519275.6,286046999.1,N
1455519295.4,286046998.7,N
1455519315.3,286046998.4,N
1455519335.1,286046999.5,N
1455519355.9,286046999.5,N
1455519375.7,286046998.5,N
1455519395.5,286047000.8,N
1455519415.4,286046998.8,N
1455519435.2,286046998.4,N
1455519455.0,286047000.5,N
1455519455.9,286047000.5,N
1455519475.8,286047000.1,N
1455519495.6,286046999.9,N
1455519515.5,286047000.1,N
1455519535.3,286047002.8,N
1455519555.1,286047011.9,Y
1455519575.9,286047003.3,P
1455519595.7,286047005.6,N
